Simultaneous Nadir Overpasses (SNOs) Predictions

Prediction of SNOs between LANDSAT-8 and NOAA-19 Satellite Orbit:

Table of predicted SNOs for the next 14.0 days since TLE Epoch: 2/24/2024
Index Date (LANDSAT-8) Time (LANDSAT-8) Lat,Lon (LANDSAT-8) SZA (LANDSAT-8 ) Date (NOAA-19) Time (NOAA-19) Lat,Lon (NOAA-19) SZA (NOAA-19 ) Distance(km) Time Diff (sec)
1 02/26/2024 04:32:25 -80.83, -32.49 88.90 02/26/2024 04:31:53 -80.83, -32.43 88.91 1.12 32
2 02/26/2024 05:21:51 80.84, 135.25 91.11 02/26/2024 05:22:53 80.84, 135.27 91.13 0.45 62
3 02/28/2024 10:55:35 -80.80,-128.60 89.79 02/28/2024 10:55:00 -80.82,-128.52 89.78 1.91 35
4 02/28/2024 11:45:00 80.84, 39.46 90.27 02/28/2024 11:46:00 80.83, 39.35 90.28 1.92 60
5 03/01/2024 17:18:43 -80.82, 135.84 90.60 03/01/2024 17:18:06 -80.81, 135.69 90.64 2.90 37
6 03/01/2024 18:08:09 80.83, -56.46 89.40 03/01/2024 18:09:07 80.83, -56.64 89.40 3.19 58
7 03/03/2024 23:41:52 -80.80, 39.82 91.50 03/03/2024 23:41:12 -80.81, 39.84 91.50 0.73 40
8 03/04/2024 00:31:17 80.83,-152.16 88.56 03/04/2024 00:32:13 80.83,-152.34 88.55 3.28 56
9 03/06/2024 06:05:00 -80.80, -56.00 92.36 03/06/2024 06:04:18 -80.80, -56.08 92.38 1.41 42
10 03/06/2024 06:54:25 80.83, 112.01 87.69 03/06/2024 06:55:19 80.83, 111.88 87.69 2.34 54
11 03/08/2024 12:28:06 -80.82,-151.60 93.20 03/08/2024 12:27:22 -80.81,-151.69 93.23 1.89 44



Historial Predications of SNOs between LANDSAT-8 and NOAA-19
